Location: Pedholt
(56.0260°N, 10.2097°E)
Time: 04:00:47
(UTC+00:00)

SR - Pass Details

Date: 30 July 2021
Orbit: 581 x 874 km, 66.7° (Epoch: 21 September)

Event Time Altitude Azimuth Distance (km) Brightness Sun altitude
Rises 07:08:32 0° 227° (SW) 3,422 ? 29.5°
Reaches altitude 10° 07:11:04 10° 229° (SW) 2,464 ? 29.8°
Maximum altitude 07:16:47 77° 316° (NW) 832 ? 30.6°
Drops below altitude 10° 07:22:07 10° 43° (NE) 2,304 ? 31.3°
Sets 07:24:25 0° 45° (NE) 3,186 ? 31.7°
